OPS 4682 DEB, 15530

Orbit data source: Space-Track

OPS 4682 DEB, 15530 is space debris in LEO originally from a launch on Sat, 03 Apr 1965 UTC launched from the Air Force Western Test Range (AFWTR). Debris objects in space refer to the collection of defunct objects orbiting the Earth. Examples of debris include non-operational satellites, rocket bodies, and fragments generated from explosions, collisions, or faulty payload assembly.

Loading next visibility...
Identifier
15530, 1965-027T
Orbit
LEO
Country
Flag of USUS
Related business
Manufacturer
Unknown
Mission
Spacecraft
Bus & Motor
Unknown
Mass
Unknown
Launch date (UTC)
1965-04-03 (61 years ago)
Launch vehicle
Unknown
Launch site
Air Force Western Test Range (AFWTR)
Object type
Payload
Rocket body
Debris
Shape & HBR
Unknown shape, 0.1 m
Radar Cross Section
Small (<0.1 m²)

Expand to show TLE details & history
Last TLE update: 22 hours ago

TLE from 22 hours ago
0 OPS 4682 DEB
1 15530U 65027T   26119.02246209 -.00000223  00000-0 -78038-3 0  9996
2 15530  90.2873  31.3242 0031708 152.6305 225.5448 12.98683158 51277
Epoch: 2026-04-29T00:32Z
TLE epoch observation values (Epoch: 2026-04-29T00:32:20.724Z)
Latitude
17.90636°
Longitude
166.1561°
Altitude
1,286.603 km
Speed
7.206 km/s
True Right ascension
02h 04m 55s
True Declination
17° 48' 47"
Sunlit
Object was in daylight at epoch
Visualization orbit readout
Latitude
Unknown
Longitude
Unknown
Altitude
Unknown
Speed
Unknown
Apparent Right ascension
Unknown
Apparent Declination
Unknown
Sunlit
N/A
Visualization observer readout
Local Sidereal Time
05:43:59
Azimuth
Unknown
Elevation
Unknown
Doppler factor
Unknown
Orbital elements
Apogee altitude
1,288.612 km
Perigee altitude
1,240.147 km
Semi-major axis
7,642.516 km
Eccentricity
0.00317
Inclination
90.2873°
RAAN
31.3242°
Arg. of periapsis
152.6305°
True anomaly
225.28616°
Mean anomaly
225.5448°
Eccentric anomaly
225.41541°
Mean motion
3.24854 °/min
Orbital period
110.82 mins
BSTAR
-0.00078038
Loading maneuver chart data...
Computing Atmospheric mass density...
Loading historical data...
Loading historical data...
Loading historical data...
Loading historical data...
Loading historical data...
Loading historical data...
Loading historical data...

Documentation

Showing up to 5 results
|